#�ϑ�����,���ϕ���,���ϕ���,�ő啗��,�ő啗����������,�ő�u�ԕ���,�ő�u�ԕ�����������
#(�N����),(m/s)   ,(16����),(m/s)   ,(16����)        ,(m/s)       ,(16����)            
2018/5/8 0:01,2.2,4,2.4,4,5.7,6
2018/5/8 0:02,2.1,4,2.2,4,2.4,16
2018/5/8 0:03,1.8,4,2.1,4,2.1,6
2018/5/8 0:04,2,5,2,4,3.5,10
2018/5/8 0:05,2,6,2,4,3.3,10
2018/5/8 0:06,2.1,7,2.1,4,6,14
2018/5/8 0:07,2,7,2.1,4,7.1,14
2018/5/8 0:08,2.3,1,2.3,4,8.6,1
2018/5/8 0:09,2.6,2,2.6,4,7.4,16
2018/5/8 0:10,2.6,13,2.6,2,4.1,2
2018/5/8 0:11,2.5,14,2.6,2,3,14
2018/5/8 0:12,2.5,13,2.5,2,3.2,10
2018/5/8 0:13,2.6,13,2.6,2,4.5,12
2018/5/8 0:14,2.6,14,2.6,2,5.1,14
2018/5/8 0:15,2.7,14,2.7,14,5.6,14
2018/5/8 0:16,2.7,14,2.8,14,8.4,14
2018/5/8 0:17,2.8,14,2.8,14,8.3,2
2018/5/8 0:18,2.9,14,2.9,15,11,15
2018/5/8 0:19,3,14,3,14,9,15
2018/5/8 0:20,3.2,14,3.2,14,6.8,12
2018/5/8 0:21,3.4,14,3.4,14,5,13
2018/5/8 0:22,3.6,15,3.6,15,6.5,1
2018/5/8 0:23,3.8,15,3.8,15,7.9,14
2018/5/8 0:24,4.1,15,4.1,15,8.9,16
2018/5/8 0:25,4.1,15,4.1,15,7.7,15
2018/5/8 0:26,3.9,15,4.1,15,4.8,16
2018/5/8 0:27,3.6,15,3.9,15,3,13
2018/5/8 0:28,3.1,14,3.6,15,2.9,8
2018/5/8 0:29,3,15,3,15,7.9,1
2018/5/8 0:30,3,15,3,15,9.7,15
2018/5/8 0:31,2.9,16,3,15,6.2,14
2018/5/8 0:32,2.9,15,3,15,5.7,13
2018/5/8 0:33,2.8,15,2.9,15,7.1,16
2018/5/8 0:34,2.7,15,2.8,15,6.8,16
2018/5/8 0:35,2.5,16,2.7,15,4.2,14
2018/5/8 0:36,2.3,16,2.5,15,0.5,5
2018/5/8 0:37,2.3,16,2.3,15,2.5,14
2018/5/8 0:38,2.5,15,2.5,14,6.3,12
2018/5/8 0:39,2.7,15,2.7,15,10.1,1
2018/5/8 0:40,2.7,15,2.7,15,6.7,16
2018/5/8 0:41,2.7,15,2.7,16,7.5,13
2018/5/8 0:42,2.5,15,2.7,15,3.8,1
2018/5/8 0:43,2.5,15,2.6,15,6.1,9
2018/5/8 0:44,2.4,15,2.5,15,6.7,2
2018/5/8 0:45,2.4,15,2.4,15,3.2,12
2018/5/8 0:46,2.5,15,2.5,15,3,14
2018/5/8 0:47,2.5,15,2.6,15,3,3
2018/5/8 0:48,2.3,15,2.5,15,2.9,7
2018/5/8 0:49,2,15,2.3,15,4.5,4
2018/5/8 0:50,1.8,16,2,15,2.5,7
2018/5/8 0:51,1.7,2,1.8,15,2.7,10
2018/5/8 0:52,1.8,2,1.8,15,2.7,14
2018/5/8 0:53,1.6,4,1.7,15,3.3,10
2018/5/8 0:54,1.5,10,1.6,15,3.1,10
2018/5/8 0:55,1.5,9,1.5,15,2,14
2018/5/8 0:56,1.6,8,1.6,15,4.9,2
2018/5/8 0:57,1.9,7,1.9,15,6.9,2
2018/5/8 0:58,2,5,2,16,8.4,2
2018/5/8 0:59,2,4,2.1,5,4.4,7
2018/5/8 1:00,2,2,2.1,5,3.8,4
2018/5/8 1:01,1.9,2,2,5,1.5,5
2018/5/8 1:02,2,4,2,5,3.8,5
2018/5/8 1:03,2,4,2.1,5,3.2,4
2018/5/8 1:04,1.9,4,2,5,1.9,8
2018/5/8 1:05,1.9,4,1.9,5,3.2,1
2018/5/8 1:06,1.8,4,1.9,5,3.8,13
2018/5/8 1:07,1.6,3,1.8,5,1.8,1
2018/5/8 1:08,1.4,2,1.5,5,4.4,2
2018/5/8 1:09,1.7,1,1.7,3,8.4,2
2018/5/8 1:10,1.9,1,1.9,4,6.8,7
2018/5/8 1:11,2.4,2,2.4,2,11,3
2018/5/8 1:12,2.7,1,2.7,1,9.2,16
2018/5/8 1:13,2.7,16,2.7,1,6.2,16
2018/5/8 1:14,2.7,16,2.8,16,2.9,12
2018/5/8 1:15,2.8,16,2.8,16,6.5,16
2018/5/8 1:16,3.1,16,3.1,16,8.6,1
2018/5/8 1:17,3.2,1,3.2,16,4.9,2
2018/5/8 1:18,3.3,1,3.3,1,5.2,1
2018/5/8 1:19,3.1,1,3.3,1,5,1
2018/5/8 1:20,2.8,1,3.1,1,1.4,5
2018/5/8 1:21,2.6,16,2.8,1,7.8,15
2018/5/8 1:22,2.4,15,2.6,1,7,15
2018/5/8 1:23,2.4,16,2.4,1,4.3,2
2018/5/8 1:24,2.6,1,2.6,1,4.3,1
2018/5/8 1:25,2.6,1,2.7,1,3,4
2018/5/8 1:26,2.3,2,2.5,1,2.9,7
2018/5/8 1:27,2.2,2,2.3,1,3.9,5
2018/5/8 1:28,2.2,2,2.2,1,5.2,1
2018/5/8 1:29,2.4,2,2.4,1,8.4,3
2018/5/8 1:30,2.8,2,2.8,1,7.7,2
2018/5/8 1:31,2.6,3,2.8,2,6,1
2018/5/8 1:32,2.8,3,2.8,2,9.9,2
2018/5/8 1:33,3,3,3,3,6.4,5
2018/5/8 1:34,3,3,3,3,4.7,4
2018/5/8 1:35,3.2,3,3.2,3,6,2
2018/5/8 1:36,3.5,3,3.5,3,10,3
2018/5/8 1:37,3.6,3,3.7,3,8.2,3
2018/5/8 1:38,3.5,3,3.6,3,1.6,1
2018/5/8 1:39,3.2,3,3.5,3,1.9,8
2018/5/8 1:40,2.9,3,3.1,3,4.5,5
2018/5/8 1:41,2.9,4,3,3,3.6,6
2018/5/8 1:42,2.5,4,2.9,3,3.1,6
2018/5/8 1:43,2.2,4,2.5,3,2,14
2018/5/8 1:44,2.2,4,2.2,3,5.7,1
2018/5/8 1:45,2,3,2.1,3,2.7,3
2018/5/8 1:46,1.7,3,2,3,3.2,2
2018/5/8 1:47,1.7,3,1.7,3,4.3,12
2018/5/8 1:48,1.8,4,1.8,3,4.9,5
2018/5/8 1:49,2,3,2,3,4.7,3
2018/5/8 1:50,2.1,2,2.1,3,5,15
2018/5/8 1:51,2.1,2,2.1,4,4.2,3
2018/5/8 1:52,2.1,2,2.1,4,3.5,3
2018/5/8 1:53,2.2,3,2.2,4,3.5,6
2018/5/8 1:54,2.2,3,2.3,3,3.1,4
2018/5/8 1:55,2.1,3,2.2,3,2.7,16
2018/5/8 1:56,2.1,4,2.1,3,3.7,7
2018/5/8 1:57,2,4,2.1,3,2.6,7
2018/5/8 1:58,1.8,5,2,3,1.8,4
2018/5/8 1:59,1.8,5,1.8,3,4.9,3
2018/5/8 2:00,1.9,5,1.9,3,4.1,3
2018/5/8 2:01,1.9,5,1.9,3,3.9,5
2018/5/8 2:02,2,5,2,3,4.4,6
2018/5/8 2:03,2,5,2,3,2.5,5
2018/5/8 2:04,2,5,2,3,4.1,1
2018/5/8 2:05,2,5,2,3,3.2,9
2018/5/8 2:06,2,5,2,4,3.3,8
2018/5/8 2:07,2,5,2,5,3.1,7
2018/5/8 2:08,1.9,5,2,5,1.3,7
2018/5/8 2:09,1.8,6,1.9,5,2.2,5
2018/5/8 2:10,1.6,6,1.8,5,2.5,6
2018/5/8 2:11,1.5,6,1.6,5,3,3
2018/5/8 2:12,1.4,5,1.5,5,2.5,3
2018/5/8 2:13,1.5,5,1.5,5,2.9,3
2018/5/8 2:14,1.5,5,1.5,5,3.1,3
2018/5/8 2:15,1.4,5,1.5,5,2.1,2
2018/5/8 2:16,1.4,5,1.4,5,3.9,3
2018/5/8 2:17,1.8,4,1.8,5,8.3,3
2018/5/8 2:18,2.1,4,2.1,4,8.4,2
2018/5/8 2:19,2.5,4,2.5,4,6.9,2
2018/5/8 2:20,2.9,3,2.9,3,6.8,2
2018/5/8 2:21,3,3,3,3,5.1,3
2018/5/8 2:22,3,3,3,3,3.9,3
2018/5/8 2:23,3,3,3,3,3.5,1
2018/5/8 2:24,3,3,3,3,2.7,2
2018/5/8 2:25,3.1,3,3.1,3,4.3,1
2018/5/8 2:26,3.2,2,3.3,2,4.7,16
2018/5/8 2:27,3,3,3.2,2,4.5,3
2018/5/8 2:28,2.8,3,3,2,3,4
2018/5/8 2:29,2.4,3,2.8,2,3.2,16
2018/5/8 2:30,2.2,3,2.4,2,5.1,16
2018/5/8 2:31,2.2,2,2.3,2,4.9,2
2018/5/8 2:32,2.2,2,2.2,2,4.9,1
2018/5/8 2:33,2.2,2,2.2,2,6.4,2
2018/5/8 2:34,2.5,2,2.5,2,6.7,3
2018/5/8 2:35,2.5,2,2.5,2,5.1,1
2018/5/8 2:36,2.4,2,2.5,2,2.6,2
2018/5/8 2:37,2.3,2,2.3,3,3.7,2
2018/5/8 2:38,2.2,2,2.3,3,2.7,16
2018/5/8 2:39,2.4,2,2.4,2,4.9,3
2018/5/8 2:40,2.4,2,2.5,2,4.4,3
2018/5/8 2:41,2.3,2,2.4,2,2,4
2018/5/8 2:42,2.2,2,2.2,2,2.4,3
2018/5/8 2:43,2,2,2.2,2,2.6,3
2018/5/8 2:44,1.7,2,2,2,2.1,16
2018/5/8 2:45,1.6,2,1.6,2,3.3,1
2018/5/8 2:46,1.5,2,1.6,2,1.9,2
2018/5/8 2:47,1.4,2,1.5,2,1,2
2018/5/8 2:48,1.4,2,1.4,2,2,1
2018/5/8 2:49,1.3,2,1.4,2,2.9,1
2018/5/8 2:50,1.1,2,1.3,2,2.2,2
2018/5/8 2:51,1.1,1,1.1,2,1.3,12
2018/5/8 2:52,1,1,1.1,2,1.8,16
2018/5/8 2:53,0.9,1,1,2,1.5,4
2018/5/8 2:54,1,1,1,2,3.5,1
2018/5/8 2:55,1.2,1,1.2,2,5.4,16
2018/5/8 2:56,1.4,1,1.4,2,4.1,3
2018/5/8 2:57,1.6,2,1.6,2,4.3,1
2018/5/8 2:58,1.7,2,1.7,2,3.7,2
2018/5/8 2:59,1.9,2,1.9,2,9.5,15
2018/5/8 3:00,2.3,2,2.3,2,11.3,2
2018/5/8 3:01,2.9,2,2.9,2,10.9,1
2018/5/8 3:02,3.1,2,3.1,2,5.2,3
2018/5/8 3:03,3.6,2,3.6,2,9.1,3
2018/5/8 3:04,3.9,2,3.9,2,8.4,16
2018/5/8 3:05,4.2,2,4.2,2,14.1,2
2018/5/8 3:06,4.5,2,4.5,2,9.9,3
2018/5/8 3:07,4.4,2,4.5,2,3,3
2018/5/8 3:08,4.6,2,4.6,2,6.2,3
2018/5/8 3:09,4.5,2,4.6,2,5.8,3
2018/5/8 3:10,4.3,2,4.5,2,7.2,4
2018/5/8 3:11,4,2,4.2,2,5.7,3
2018/5/8 3:12,4.2,2,4.2,2,7.6,16
2018/5/8 3:13,4,2,4.2,2,6.4,1
2018/5/8 3:14,4.1,2,4.1,2,8.9,2
2018/5/8 3:15,3.8,2,4.1,2,6.2,2
2018/5/8 3:16,4,2,4,2,11.3,1
2018/5/8 3:17,4.3,1,4.3,2,11.8,2
2018/5/8 3:18,4.4,1,4.4,2,6.3,1
2018/5/8 3:19,4.4,1,4.4,2,8.7,2
2018/5/8 3:20,4.5,1,4.5,1,11.6,2
2018/5/8 3:21,4.8,1,4.8,1,10.9,1
2018/5/8 3:22,4.8,1,4.8,1,7.2,1
2018/5/8 3:23,4.8,1,4.8,1,6.1,1
2018/5/8 3:24,4.5,1,4.8,1,5.6,16
2018/5/8 3:25,4.5,1,4.5,1,7.6,1
2018/5/8 3:26,4.4,1,4.5,1,7.4,16
2018/5/8 3:27,4.1,1,4.3,1,7.4,16
2018/5/8 3:28,4,1,4.1,1,6.2,1
2018/5/8 3:29,4,1,4.1,1,8.2,2
2018/5/8 3:30,3.9,1,4,1,8.7,15
2018/5/8 3:31,3.8,1,3.9,1,8.2,16
2018/5/8 3:32,3.7,16,3.8,1,8.1,16
2018/5/8 3:33,4,16,4,1,10.5,16
2018/5/8 3:34,4.1,16,4.1,1,8.5,15
2018/5/8 3:35,4.2,16,4.2,1,7.5,16
2018/5/8 3:36,4.2,16,4.3,1,6.4,16
2018/5/8 3:37,4.1,16,4.1,16,6.5,15
2018/5/8 3:38,4.3,16,4.3,16,7.2,15
2018/5/8 3:39,4.6,16,4.6,16,9.8,13
2018/5/8 3:40,4.8,16,4.8,16,9.8,15
2018/5/8 3:41,4.8,16,4.8,16,10.3,16
2018/5/8 3:42,4.8,16,4.8,16,8.3,16
2018/5/8 3:43,4.6,16,4.8,16,4.8,1
2018/5/8 3:44,4.5,16,4.5,16,4.8,2
2018/5/8 3:45,4.3,16,4.4,16,5.1,2
2018/5/8 3:46,4.1,16,4.3,16,3,15
2018/5/8 3:47,4,1,4.1,16,4.5,16
2018/5/8 3:48,3.8,1,4,16,3.9,16
2018/5/8 3:49,3.7,1,3.8,16,7.7,16
2018/5/8 3:50,3.5,1,3.7,16,6.2,15
2018/5/8 3:51,3.5,1,3.5,16,8.1,16
2018/5/8 3:52,3.4,1,3.5,16,9.4,16
2018/5/8 3:53,3.7,1,3.7,16,9.5,1
2018/5/8 3:54,3.8,1,3.9,16,6.7,2
2018/5/8 3:55,3.9,1,4,16,7.1,1
2018/5/8 3:56,4,16,4,16,5.7,1
2018/5/8 3:57,4.2,1,4.2,16,9,1
2018/5/8 3:58,4.3,1,4.3,1,6,3
2018/5/8 3:59,4,1,4.3,1,4.2,1
2018/5/8 4:00,3.9,1,4,1,4.8,3
2018/5/8 4:01,3.5,1,3.9,1,3.1,16
2018/5/8 4:02,3.3,1,3.5,1,4.5,1
2018/5/8 4:03,2.9,1,3.3,1,3.5,2
2018/5/8 4:04,2.6,1,2.8,1,4.5,16
2018/5/8 4:05,2.6,1,2.6,1,5.5,2
2018/5/8 4:06,2.7,1,2.7,1,6.4,16
2018/5/8 4:07,2.7,1,2.8,1,6.9,16
2018/5/8 4:08,2.7,1,2.7,1,4.5,1
2018/5/8 4:09,2.7,1,2.8,1,6.2,16
2018/5/8 4:10,2.8,1,2.8,1,5.1,1
2018/5/8 4:11,2.8,1,2.8,1,3.5,3
2018/5/8 4:12,2.8,1,2.9,1,3.9,4
2018/5/8 4:13,2.7,2,2.8,1,1.8,4
2018/5/8 4:14,2.6,2,2.7,1,1.8,4
2018/5/8 4:15,2.2,2,2.5,1,1.3,7
2018/5/8 4:16,2.1,3,2.2,1,2.7,6
2018/5/8 4:17,1.8,4,2.1,1,2.5,7
2018/5/8 4:18,1.7,4,1.8,1,2.6,5
2018/5/8 4:19,1.6,5,1.7,1,2.2,6
2018/5/8 4:20,1.4,5,1.6,1,1.1,3
2018/5/8 4:21,1.2,5,1.4,1,0.6,8
2018/5/8 4:22,1.2,6,1.2,1,1.5,8
2018/5/8 4:23,1.2,6,1.2,2,2,7
2018/5/8 4:24,1.1,7,1.2,2,1,8
2018/5/8 4:25,1.1,7,1.1,2,0.6,12
2018/5/8 4:26,0.9,8,1.1,3,0.5,11
2018/5/8 4:27,0.7,9,0.9,4,0.5,10
2018/5/8 4:28,0.7,10,0.7,4,2.1,9
2018/5/8 4:29,0.6,10,0.7,5,2.2,9
2018/5/8 4:30,0.6,10,0.6,5,1.5,7
2018/5/8 4:31,0.7,9,0.7,5,1.1,6
2018/5/8 4:32,0.6,9,0.7,6,1.3,5
2018/5/8 4:33,0.6,9,0.6,6,1.3,6
2018/5/8 4:34,0.7,8,0.7,7,1.8,8
2018/5/8 4:35,0.8,7,0.8,7,1.9,7
2018/5/8 4:36,0.9,7,0.9,8,1.4,6
2018/5/8 4:37,0.9,6,0.9,7,1.5,4
2018/5/8 4:38,0.9,6,1,6,1.5,3
2018/5/8 4:39,0.9,6,0.9,6,0.9,4
2018/5/8 4:40,0.8,6,0.9,6,0.1,7
2018/5/8 4:41,0.7,6,0.8,6,0.1,3
2018/5/8 4:42,0.6,6,0.7,6,0.1,6
2018/5/8 4:43,0.6,6,0.6,6,0.5,1
2018/5/8 4:44,0.5,5,0.6,6,1,1
2018/5/8 4:45,0.4,4,0.5,6,0.8,3
2018/5/8 4:46,0.4,3,0.4,6,0.9,2
2018/5/8 4:47,0.3,3,0.4,6,0.4,2
2018/5/8 4:48,0.2,3,0.3,6,0.3,14
2018/5/8 4:49,0.3,3,0.3,6,1.9,7
2018/5/8 4:50,0.4,3,0.4,6,1.8,6
2018/5/8 4:51,0.4,3,0.4,6,1,11
2018/5/8 4:52,0.4,3,0.4,6,1.3,8
2018/5/8 4:53,0.4,3,0.5,5,0.8,8
2018/5/8 4:54,0.4,4,0.4,5,2.2,5
2018/5/8 4:55,0.6,7,0.6,6,3.3,6
2018/5/8 4:56,0.6,7,0.6,6,1.9,2
2018/5/8 4:57,0.8,7,0.8,7,2.4,1
2018/5/8 4:58,0.9,6,0.9,6,2,1
2018/5/8 4:59,0.8,5,0.9,6,0.9,1
2018/5/8 5:00,0.8,3,0.8,6,0.6,13
2018/5/8 5:01,0.9,1,0.9,6,2.2,15
2018/5/8 5:02,0.9,16,0.9,6,2,13
2018/5/8 5:03,1,16,1,16,2.4,9
2018/5/8 5:04,1,16,1,16,0.9,16
2018/5/8 5:05,0.8,16,1,16,0.5,4
2018/5/8 5:06,0.9,16,0.9,16,1.6,11
2018/5/8 5:07,0.9,15,0.9,16,2.9,11
2018/5/8 5:08,0.8,14,0.9,16,2,11
2018/5/8 5:09,0.9,13,0.9,16,1.3,9
2018/5/8 5:10,1,12,1,16,1.9,12
2018/5/8 5:11,1,11,1.1,12,2.1,11
2018/5/8 5:12,1,11,1,12,1.8,10
2018/5/8 5:13,1.1,11,1.1,12,2.9,8
2018/5/8 5:14,1.2,10,1.2,10,2.5,9
2018/5/8 5:15,1.2,10,1.2,10,1.9,9
2018/5/8 5:16,1.1,10,1.2,10,0.5,7
2018/5/8 5:17,1,9,1.1,10,0.5,9
2018/5/8 5:18,0.9,9,0.9,10,0.3,9
2018/5/8 5:19,0.8,9,0.9,10,0.6,3
2018/5/8 5:20,0.8,8,0.8,10,0.8,4
2018/5/8 5:21,0.6,7,0.7,10,0.6,5
2018/5/8 5:22,0.6,6,0.6,10,0.6,1
2018/5/8 5:23,0.4,6,0.5,10,0.5,12
2018/5/8 5:24,0.3,6,0.4,10,0.8,11
2018/5/8 5:25,0.3,2,0.3,10,0.8,15
2018/5/8 5:26,0.3,15,0.3,10,0.9,10
2018/5/8 5:27,0.3,15,0.3,9,1.3,10
2018/5/8 5:28,0.4,13,0.4,9,1.1,11
2018/5/8 5:29,0.4,13,0.4,9,1.1,11
2018/5/8 5:30,0.4,12,0.4,8,1.5,8
2018/5/8 5:31,0.5,11,0.5,7,1.5,5
2018/5/8 5:32,0.5,11,0.5,6,1.3,6
2018/5/8 5:33,0.7,10,0.7,10,2.7,9
2018/5/8 5:34,0.8,9,0.8,9,3.2,8
2018/5/8 5:35,0.8,8,0.8,9,1.1,6
2018/5/8 5:36,0.8,8,0.8,9,0.6,2
2018/5/8 5:37,0.7,7,0.8,9,0.6,3
2018/5/8 5:38,0.7,6,0.7,9,1.3,16
2018/5/8 5:39,0.7,5,0.7,9,0.8,1
2018/5/8 5:40,0.7,4,0.7,9,0.9,3
2018/5/8 5:41,0.7,4,0.7,9,2,2
2018/5/8 5:42,0.7,3,0.7,9,1.5,2
2018/5/8 5:43,0.6,2,0.7,9,1.1,1
2018/5/8 5:44,0.5,1,0.6,9,1,1
2018/5/8 5:45,0.6,1,0.6,8,1.1,16
2018/5/8 5:46,0.6,1,0.6,8,0.9,15
2018/5/8 5:47,0.6,1,0.6,7,1.9,16
2018/5/8 5:48,0.7,1,0.7,6,2.4,16
2018/5/8 5:49,0.7,1,0.7,5,1.5,16
2018/5/8 5:50,0.7,16,0.7,4,0.5,1
2018/5/8 5:51,0.6,16,0.7,4,1.3,12
2018/5/8 5:52,0.6,15,0.6,2,0.9,11
2018/5/8 5:53,0.6,14,0.6,1,0.8,9
2018/5/8 5:54,0.5,14,0.6,1,0.9,13
2018/5/8 5:55,0.6,14,0.6,1,3.9,2
2018/5/8 5:56,0.8,15,0.8,15,3.2,1
2018/5/8 5:57,0.9,15,0.9,15,3.9,15
2018/5/8 5:58,1,15,1,15,4.5,16
2018/5/8 5:59,1.3,15,1.3,15,5.6,15
2018/5/8 6:00,1.6,15,1.6,15,4.1,16
2018/5/8 6:01,1.8,15,1.8,15,4.8,16
2018/5/8 6:02,2.1,16,2.1,16,4.8,16
2018/5/8 6:03,2.1,16,2.1,16,1.4,5
2018/5/8 6:04,2.1,16,2.1,16,1.8,16
2018/5/8 6:05,2.1,16,2.2,16,2.2,1
2018/5/8 6:06,2,16,2.1,16,2.9,2
2018/5/8 6:07,1.9,16,2,16,1.9,16
2018/5/8 6:08,1.7,1,1.9,16,1.5,3
2018/5/8 6:09,1.5,1,1.7,16,1.5,14
2018/5/8 6:10,1.2,1,1.4,16,1.3,6
2018/5/8 6:11,1,2,1.2,16,1.3,7
2018/5/8 6:12,0.8,2,1,16,1.3,8
2018/5/8 6:13,0.8,2,0.8,16,2.7,2
2018/5/8 6:14,0.9,3,0.9,16,2.2,2
2018/5/8 6:15,0.9,3,0.9,16,3.6,5
2018/5/8 6:16,1,3,1,16,3.2,14
2018/5/8 6:17,1.2,3,1.2,1,4.7,15
2018/5/8 6:18,1.6,2,1.6,1,7.4,2
2018/5/8 6:19,1.6,3,1.6,2,2.6,1
2018/5/8 6:20,1.7,2,1.7,3,2,3
2018/5/8 6:21,1.7,2,1.7,3,1.8,3
2018/5/8 6:22,1.8,2,1.8,2,2.5,3
2018/5/8 6:23,1.9,2,1.9,2,3.5,4
2018/5/8 6:24,2,2,2,2,3.5,4
2018/5/8 6:25,2.1,2,2.1,2,3.2,3
2018/5/8 6:26,1.9,3,2.1,2,1.9,4
2018/5/8 6:27,1.7,3,1.9,2,1.3,9
2018/5/8 6:28,1.4,4,1.7,2,0.9,3
2018/5/8 6:29,1.3,4,1.4,2,0.5,5
2018/5/8 6:30,1.2,4,1.3,2,1.6,4
2018/5/8 6:31,1.3,4,1.3,2,1.8,6
2018/5/8 6:32,1.2,4,1.3,2,1.4,3
2018/5/8 6:33,1,4,1.2,2,1.1,10
2018/5/8 6:34,0.8,5,1,2,1.1,10
2018/5/8 6:35,0.7,5,0.8,2,1.5,5
2018/5/8 6:36,0.8,5,0.8,3,2.9,8
2018/5/8 6:37,1.1,5,1.1,3,4.8,8
2018/5/8 6:38,1.3,6,1.3,4,3.6,9
2018/5/8 6:39,1.5,6,1.5,6,2.4,10
2018/5/8 6:40,1.6,7,1.6,7,3.9,8
2018/5/8 6:41,1.7,7,1.7,7,3.2,8
2018/5/8 6:42,1.7,8,1.8,8,2.2,7
2018/5/8 6:43,1.8,8,1.8,8,2.2,9
2018/5/8 6:44,1.9,8,1.9,8,2,9
2018/5/8 6:45,1.9,8,1.9,8,1.1,8
2018/5/8 6:46,1.7,8,1.8,8,0.4,8
2018/5/8 6:47,1.3,9,1.6,8,0.6,8
2018/5/8 6:48,1.1,9,1.3,8,0.8,11
2018/5/8 6:49,1,9,1.1,8,0.8,12
2018/5/8 6:50,0.8,9,1,8,1.1,9
2018/5/8 6:51,0.6,9,0.8,8,0.8,9
2018/5/8 6:52,0.5,10,0.6,8,1.1,8
2018/5/8 6:53,0.6,10,0.6,8,2.5,7
2018/5/8 6:54,0.6,10,0.6,8,2.9,10
2018/5/8 6:55,0.8,10,0.8,8,3,9
2018/5/8 6:56,0.8,10,0.8,8,1.6,9
2018/5/8 6:57,0.9,10,0.9,9,2.2,9
2018/5/8 6:58,0.9,9,0.9,9,0.4,12
2018/5/8 6:59,1,9,1,9,1.5,10
2018/5/8 7:00,0.9,9,1,9,0.8,12
2018/5/8 7:01,1,9,1,9,2.5,9
2018/5/8 7:02,1.1,9,1.1,9,1.5,10
2018/5/8 7:03,1,9,1.1,9,1.8,10
2018/5/8 7:04,0.9,9,1,9,2.1,10
2018/5/8 7:05,0.8,10,0.9,9,2.1,10
2018/5/8 7:06,0.7,10,0.8,9,1.1,16
2018/5/8 7:07,0.8,10,0.8,9,2.7,14
2018/5/8 7:08,1,11,1,9,4.3,15
2018/5/8 7:09,1.2,12,1.2,12,5.2,15
2018/5/8 7:10,1.3,12,1.3,12,3.3,16
2018/5/8 7:11,1.4,14,1.4,14,3.8,1
2018/5/8 7:12,1.6,15,1.6,15,4.7,2
2018/5/8 7:13,1.7,16,1.7,15,3.3,1
2018/5/8 7:14,2,16,2,16,6,16
2018/5/8 7:15,2.5,16,2.5,16,10.8,16
2018/5/8 7:16,3.1,16,3.1,16,10,16
2018/5/8 7:17,3.4,16,3.4,16,9.2,15
2018/5/8 7:18,3.6,16,3.6,16,6.1,16
2018/5/8 7:19,3.7,16,3.7,16,5,16
2018/5/8 7:20,3.8,16,3.8,16,6.3,16
2018/5/8 7:21,3.9,16,3.9,16,5.6,16
2018/5/8 7:22,3.9,16,3.9,16,6,16
2018/5/8 7:23,4.2,16,4.2,16,7.2,15
2018/5/8 7:24,4.3,16,4.3,16,6.2,14
2018/5/8 7:25,4.2,16,4.4,16,6.4,16
2018/5/8 7:26,3.9,16,4.1,16,5.8,15
2018/5/8 7:27,3.5,16,3.8,16,3.5,14
2018/5/8 7:28,3.4,16,3.5,16,5.5,16
2018/5/8 7:29,3.4,16,3.4,16,5.7,15
2018/5/8 7:30,3.3,16,3.4,16,4.5,15
2018/5/8 7:31,3.3,16,3.3,16,5.2,16
2018/5/8 7:32,3.4,16,3.4,16,5,14
2018/5/8 7:33,3.4,16,3.5,16,5.6,15
2018/5/8 7:34,3.2,16,3.4,16,3.9,1
2018/5/8 7:35,3,16,3.1,16,6.4,1
2018/5/8 7:36,3,16,3,16,6.3,15
2018/5/8 7:37,3.2,16,3.2,16,6.4,15
2018/5/8 7:38,3.2,16,3.3,16,8.2,2
2018/5/8 7:39,3.2,16,3.2,16,6.1,16
2018/5/8 7:40,3.4,16,3.4,16,6,16
2018/5/8 7:41,3.4,16,3.4,16,5.4,1
2018/5/8 7:42,3.3,16,3.4,16,4.2,1
2018/5/8 7:43,3,16,3.2,16,3.5,15
2018/5/8 7:44,3.1,16,3.1,16,5.7,2
2018/5/8 7:45,3.2,16,3.3,16,5.6,2
2018/5/8 7:46,3.1,16,3.2,16,4.1,2
2018/5/8 7:47,3,1,3.1,16,4.5,16
2018/5/8 7:48,3.1,16,3.1,16,5.8,16
2018/5/8 7:49,3.1,16,3.1,16,4.9,16
2018/5/8 7:50,3,16,3.1,16,4.7,16
2018/5/8 7:51,2.8,16,3,16,3.8,2
2018/5/8 7:52,2.9,16,2.9,16,4.9,2
2018/5/8 7:53,3,16,3,16,5.5,15
2018/5/8 7:54,2.9,16,3,16,5.1,1
2018/5/8 7:55,2.9,16,2.9,16,4.7,1
2018/5/8 7:56,2.9,16,2.9,16,3.2,15
2018/5/8 7:57,2.8,16,2.9,1,3.2,15
2018/5/8 7:58,2.4,16,2.7,16,2.1,1
2018/5/8 7:59,2.3,16,2.4,16,2.2,1
2018/5/8 8:00,2,16,2.2,16,2.2,1
2018/5/8 8:01,1.9,16,2,16,2.2,14
2018/5/8 8:02,1.8,16,1.9,16,2.4,16
2018/5/8 8:03,1.7,1,1.8,16,2.6,1
2018/5/8 8:04,1.6,1,1.7,16,3.5,16
2018/5/8 8:05,1.6,1,1.6,16,4.1,1
2018/5/8 8:06,1.7,16,1.7,16,4.3,14
2018/5/8 8:07,1.7,1,1.7,16,3,15
2018/5/8 8:08,1.7,16,1.7,16,2.7,15
2018/5/8 8:09,1.8,16,1.8,16,3,1
2018/5/8 8:10,1.9,16,1.9,16,3.7,15
2018/5/8 8:11,2,16,2,16,5,2
2018/5/8 8:12,2.1,16,2.1,16,4.2,16
2018/5/8 8:13,2.2,16,2.2,16,4.8,2
2018/5/8 8:14,2.3,1,2.3,16,4.8,1
2018/5/8 8:15,2.2,1,2.3,16,3.2,2
2018/5/8 8:16,1.9,1,2.1,16,1.9,16
2018/5/8 8:17,2,1,2,16,4.4,15
2018/5/8 8:18,2.1,1,2.1,16,4.4,16
2018/5/8 8:19,2.2,1,2.2,16,5,15
2018/5/8 8:20,2.3,1,2.3,16,5.1,15
2018/5/8 8:21,2.2,1,2.3,16,3,15
2018/5/8 8:22,2.1,1,2.2,16,2.4,2
2018/5/8 8:23,2,16,2.1,16,3.9,16
2018/5/8 8:24,1.9,16,2,1,2.6,15
2018/5/8 8:25,2,16,2,1,3.8,3
2018/5/8 8:26,2.3,1,2.3,1,4.5,3
2018/5/8 8:27,2.3,1,2.3,1,3.1,5
2018/5/8 8:28,2.2,2,2.3,1,3.1,4
2018/5/8 8:29,2.1,2,2.2,1,2.7,3
2018/5/8 8:30,2.1,3,2.1,1,4.5,3
2018/5/8 8:31,2.2,3,2.2,1,4.4,3
2018/5/8 8:32,2.4,3,2.4,3,4.3,3
2018/5/8 8:33,2.4,4,2.5,3,3.6,5
2018/5/8 8:34,2.5,4,2.5,3,3.2,5
2018/5/8 8:35,2.4,4,2.5,3,2.9,6
2018/5/8 8:36,2.3,4,2.4,3,3,5
2018/5/8 8:37,2.3,5,2.3,3,3.5,3
2018/5/8 8:38,2.2,4,2.3,3,2.1,4
2018/5/8 8:39,2.1,4,2.2,3,1.9,4
2018/5/8 8:40,1.8,5,2.1,3,0.8,4
2018/5/8 8:41,1.7,5,1.8,3,1.6,7
2018/5/8 8:42,1.4,5,1.6,3,1.1,4
2018/5/8 8:43,1.2,5,1.4,4,1.1,6
2018/5/8 8:44,1.1,5,1.2,4,1.5,4
2018/5/8 8:45,1,5,1.1,4,1.6,7
2018/5/8 8:46,1,5,1,4,2.4,6
2018/5/8 8:47,0.9,5,1,5,2.2,6
2018/5/8 8:48,0.8,5,0.9,4,1,6
2018/5/8 8:49,0.8,5,0.8,4,1.1,16
2018/5/8 8:50,1,4,1,5,3.5,16
2018/5/8 8:51,1.1,4,1.1,5,3.5,16
2018/5/8 8:52,1.2,3,1.2,5,3.7,3
2018/5/8 8:53,1.4,3,1.4,3,3.6,3
2018/5/8 8:54,1.5,3,1.5,3,3.2,2
2018/5/8 8:55,1.7,3,1.7,3,5.4,15
2018/5/8 8:56,1.8,2,1.8,2,4.8,1
2018/5/8 8:57,1.8,2,1.8,2,4.5,16
2018/5/8 8:58,1.9,1,1.9,1,4.4,1
2018/5/8 8:59,2.2,1,2.2,1,6,15
2018/5/8 9:00,2.4,1,2.4,1,5.1,1
2018/5/8 9:01,2.4,1,2.4,1,5,1
2018/5/8 9:02,2.6,1,2.6,1,7.2,16
2018/5/8 9:03,2.5,1,2.6,1,3.2,2
2018/5/8 9:04,2.6,1,2.6,1,5.4,1
2018/5/8 9:05,2.7,1,2.7,1,4.9,1
2018/5/8 9:06,2.7,1,2.8,1,4.5,16
2018/5/8 9:07,2.7,1,2.8,1,3.6,16
2018/5/8 9:08,2.7,1,2.8,1,3.7,1
2018/5/8 9:09,2.6,16,2.7,1,3.2,15
2018/5/8 9:10,2.4,16,2.6,1,3.5,15
2018/5/8 9:11,2.3,16,2.4,1,1.3,1
2018/5/8 9:12,1.9,16,2.2,1,1.4,2
2018/5/8 9:13,2,16,2,1,3.9,1
2018/5/8 9:14,2,1,2,1,3.7,2
2018/5/8 9:15,1.9,16,2,1,3.8,15
2018/5/8 9:16,1.8,16,1.9,1,3.2,14
2018/5/8 9:17,1.6,16,1.8,1,2,14
2018/5/8 9:18,1.6,16,1.6,1,1.9,12
2018/5/8 9:19,1.4,16,1.6,16,2.1,12
2018/5/8 9:20,1.6,16,1.6,16,5.4,16
2018/5/8 9:21,1.9,16,1.9,16,4.3,15
2018/5/8 9:22,2.1,15,2.1,15,4.3,15
2018/5/8 9:23,2.1,15,2.1,15,3.6,13
2018/5/8 9:24,2,15,2.1,15,3.5,16
2018/5/8 9:25,1.8,15,2,15,2,2
2018/5/8 9:26,1.8,15,1.8,15,3.1,16
2018/5/8 9:27,1.8,15,1.8,15,3.9,15
2018/5/8 9:28,2,16,2,15,3.5,1
2018/5/8 9:29,2.1,16,2.1,15,3.9,2
2018/5/8 9:30,2,16,2,15,5.4,16
2018/5/8 9:31,2,16,2,15,4.4,1
2018/5/8 9:32,1.8,1,2,15,3,16
2018/5/8 9:33,1.8,1,1.8,15,4.5,16
2018/5/8 9:34,2,1,2,16,5.4,15
2018/5/8 9:35,2.4,16,2.4,16,7.9,16
2018/5/8 9:36,2.6,16,2.6,16,7,15
2018/5/8 9:37,2.8,16,2.8,16,7.5,16
2018/5/8 9:38,3,16,3,16,6.1,16
2018/5/8 9:39,3.3,16,3.3,16,7,16
2018/5/8 9:40,3.3,16,3.4,16,6.9,15
2018/5/8 9:41,3.2,16,3.3,16,4.9,2
2018/5/8 9:42,3.5,16,3.5,16,6.7,1
2018/5/8 9:43,3.5,16,3.6,16,4.4,1
2018/5/8 9:44,3.5,16,3.6,16,5.7,16
2018/5/8 9:45,3.2,16,3.5,16,3.6,15
2018/5/8 9:46,3.3,16,3.3,16,8.1,16
2018/5/8 9:47,3.4,16,3.4,16,7.1,1
2018/5/8 9:48,3.4,16,3.4,16,5.5,15
2018/5/8 9:49,3.2,16,3.3,16,5.4,15
2018/5/8 9:50,3.2,16,3.2,16,3.7,1
2018/5/8 9:51,3.3,16,3.3,16,6.4,16
2018/5/8 9:52,3.2,16,3.3,16,5.8,1
2018/5/8 9:53,3.3,16,3.3,16,6.2,1
2018/5/8 9:54,3.2,16,3.3,16,5.7,15
2018/5/8 9:55,3.5,16,3.5,16,8.3,15
2018/5/8 9:56,3.5,16,3.6,16,5.6,16
2018/5/8 9:57,3.2,16,3.4,16,5.2,1
2018/5/8 9:58,3.1,16,3.2,16,5.1,14
2018/5/8 9:59,3,16,3.1,16,3.6,16
2018/5/8 10:00,2.9,16,2.9,16,4.8,2
2018/5/8 10:01,2.9,16,2.9,16,6.1,1
2018/5/8 10:02,3,16,3,16,7.9,16
2018/5/8 10:03,3,16,3.1,16,8.3,15
2018/5/8 10:04,3.1,16,3.1,16,7.9,16
2018/5/8 10:05,3.1,16,3.2,16,6.9,16
2018/5/8 10:06,3.1,16,3.1,16,4.7,16
2018/5/8 10:07,3.1,16,3.1,16,7.6,16
2018/5/8 10:08,3.6,16,3.6,16,10.3,1
2018/5/8 10:09,3.9,16,3.9,16,7.2,15
2018/5/8 10:10,4.1,16,4.1,16,6.7,15
2018/5/8 10:11,4,16,4.1,16,4.2,15
2018/5/8 10:12,3.8,16,4,16,3.5,14
2018/5/8 10:13,3.7,16,3.8,16,4.5,2
2018/5/8 10:14,3.5,16,3.7,16,3.2,15
2018/5/8 10:15,3.3,16,3.4,16,5.8,1
2018/5/8 10:16,3.3,16,3.3,16,5.1,16
2018/5/8 10:17,3.3,16,3.4,16,4.5,16
2018/5/8 10:18,2.9,16,3.3,16,4.5,15
2018/5/8 10:19,2.7,16,2.9,16,4.1,16
2018/5/8 10:20,2.5,16,2.7,16,2.9,14
2018/5/8 10:21,2.4,16,2.5,16,2.7,16
2018/5/8 10:22,2.4,16,2.4,16,3.1,16
2018/5/8 10:23,2.3,16,2.3,16,3.1,1
2018/5/8 10:24,2.4,16,2.4,16,4.2,1
2018/5/8 10:25,2.3,16,2.4,16,3,16
2018/5/8 10:26,2.2,16,2.3,16,4.4,1
2018/5/8 10:27,2,16,2.2,16,2.6,1
2018/5/8 10:28,1.8,16,2,16,1.9,1
2018/5/8 10:29,1.6,16,1.8,16,1.9,1
2018/5/8 10:30,1.5,1,1.6,16,1.5,1
2018/5/8 10:31,1.6,1,1.6,16,3.7,1
2018/5/8 10:32,1.7,1,1.7,16,3.8,2
2018/5/8 10:33,1.7,1,1.7,16,3.3,2
2018/5/8 10:34,1.7,1,1.7,16,3.6,3
2018/5/8 10:35,1.7,2,1.7,16,2,4
2018/5/8 10:36,1.5,2,1.7,16,1.5,16
2018/5/8 10:37,1.5,2,1.5,16,1,2
2018/5/8 10:38,1.4,2,1.5,16,0.6,3
2018/5/8 10:39,1.4,2,1.4,1,2,2
2018/5/8 10:40,1.5,2,1.5,1,3.3,15
2018/5/8 10:41,1.7,2,1.7,1,5.2,16
2018/5/8 10:42,1.6,2,1.7,1,5.4,16
2018/5/8 10:43,1.6,1,1.6,1,5.5,15
2018/5/8 10:44,1.6,1,1.6,1,5.4,15
2018/5/8 10:45,1.7,1,1.7,2,3.9,15
2018/5/8 10:46,1.7,1,1.7,2,2.9,16
2018/5/8 10:47,1.6,16,1.7,2,1.4,1
2018/5/8 10:48,1.9,16,1.9,16,4.4,16
2018/5/8 10:49,2,16,2,16,3.7,1
2018/5/8 10:50,2.2,16,2.2,16,6.8,16
2018/5/8 10:51,2.2,16,2.3,16,7.4,15
2018/5/8 10:52,2.3,16,2.3,16,4.9,15
2018/5/8 10:53,2.2,16,2.3,16,4.7,16
2018/5/8 10:54,2.5,16,2.5,16,8.6,16
2018/5/8 10:55,2.7,16,2.7,16,6,15
2018/5/8 10:56,2.9,16,2.9,16,5.5,1
2018/5/8 10:57,3.2,16,3.2,16,6.9,16
2018/5/8 10:58,3.3,16,3.3,16,5.7,16
2018/5/8 10:59,3.6,16,3.6,16,8.7,16
2018/5/8 11:00,3.7,16,3.8,16,7.4,16
2018/5/8 11:01,3.6,16,3.7,16,5.2,16
2018/5/8 11:02,3.6,16,3.6,16,5.2,16
2018/5/8 11:03,3.9,16,3.9,16,5.4,16
2018/5/8 11:04,3.8,16,3.9,16,6.1,16
2018/5/8 11:05,3.7,16,3.8,16,5.4,15
2018/5/8 11:06,3.7,16,3.8,16,4.8,16
2018/5/8 11:07,3.7,16,3.8,16,6.5,16
2018/5/8 11:08,3.6,16,3.7,16,4.3,1
2018/5/8 11:09,3.3,16,3.6,16,2.5,1
2018/5/8 11:10,3,16,3.2,16,5,2
2018/5/8 11:11,3.2,16,3.2,16,8.2,15
2018/5/8 11:12,3.3,16,3.3,16,5.4,15
2018/5/8 11:13,3.1,16,3.3,16,4.9,14
2018/5/8 11:14,3,16,3.1,16,4.7,16
2018/5/8 11:15,2.8,16,3,16,2,16
2018/5/8 11:16,2.7,16,2.8,16,4.1,15
2018/5/8 11:17,2.7,16,2.7,16,5.4,2
2018/5/8 11:18,2.7,16,2.7,16,4.4,16
2018/5/8 11:19,2.8,16,2.8,16,4.1,1
2018/5/8 11:20,2.7,16,2.8,16,3.3,1
2018/5/8 11:21,2.5,16,2.7,16,2.5,2
2018/5/8 11:22,2.1,16,2.4,16,2.2,2
2018/5/8 11:23,2,1,2.2,16,3,1
2018/5/8 11:24,1.9,1,2,16,3.7,1
2018/5/8 11:25,2,1,2,16,4.4,16
2018/5/8 11:26,2.1,1,2.1,16,4.3,2
2018/5/8 11:27,2.1,1,2.1,16,4.2,1
2018/5/8 11:28,2,1,2.1,16,3.2,16
2018/5/8 11:29,2,1,2,16,3.6,16
2018/5/8 11:30,2,1,2,16,3.7,2
2018/5/8 11:31,2.1,1,2.1,16,3.3,2
2018/5/8 11:32,2.1,1,2.1,16,2.5,16
2018/5/8 11:33,2.1,1,2.1,1,3,15
2018/5/8 11:34,2.2,1,2.2,1,6.7,2
2018/5/8 11:35,2.3,1,2.3,1,5.2,2
2018/5/8 11:36,2.2,1,2.3,1,5.2,2
2018/5/8 11:37,2.1,1,2.2,1,4.1,2
2018/5/8 11:38,2.2,2,2.2,1,4.3,1
2018/5/8 11:39,2.2,2,2.2,1,3.2,2
2018/5/8 11:40,2.2,1,2.2,1,3.3,1
2018/5/8 11:41,2.1,1,2.2,1,2.2,15
2018/5/8 11:42,2.2,2,2.2,1,4.5,2
2018/5/8 11:43,2.4,2,2.4,2,4.9,1
2018/5/8 11:44,2.4,2,2.5,2,4.4,2
2018/5/8 11:45,2.4,2,2.4,2,3.8,1
2018/5/8 11:46,2.4,1,2.4,2,3.2,2